Hourly Data Report for July 24, 2004

SHERBROOKE A
QUEBEC

45°26'00.000" N
71°41'00.000" W
241.40 m
7028124
71610
YSC

Download Data

Hourly Data (July 2004)
Hourly Data Report for July 24, 2004
TIME
LST
Temp Definition
°C
Dew Point Definition
°C
Rel Hum Definition
%
Precip. Amount Definition
mm

Wind Dir Definition
10's deg

Wind Spd Definition
km/h
Visibility Definition
km
Stn Press Definition
kPa
Hmdx Definition


Wind Chill Definition


Weather Definition


00:00 12.2 11.0 92   27 4 15.0 98.95      
01:00 12.4 10.9 91   25 6 15.0 99.00      
02:00 10.9 9.8 93   26 9 15.0 99.07      
03:00 9.7 9.1 96   30 9 15.0 99.11      
04:00 10.7 10.4 98   30 6 8.0 99.22      
05:00 11.3 10.9 97   27 9 6.4 99.32      
06:00 11.7 11.3 97   32 9 9.7 99.41      
07:00 12.5 11.7 95     0 16.1 99.49     Drizzle
08:00 13.8 11.8 88   35 6 24.1 99.55     Mostly Cloudy
09:00 15.5 12.2 81   2 9 24.1 99.60     Mostly Cloudy
10:00 17.6 12.8 73   2 9 24.1 99.64     Mostly Cloudy
11:00 17.4 11.0 66   30 7 24.1 99.66     Mostly Cloudy
12:00 19.7 11.8 60   34 7 24.1 99.68     Mostly Cloudy
13:00 20.1 9.4 50   34 4 24.1 99.68     Mostly Cloudy
14:00 19.2 9.7 54   36 7 24.1 99.70     Mostly Cloudy
15:00 20.8 9.9 50   6 7 24.1 99.71     Mainly Clear
16:00 20.1 10.5 54   35 6 24.1 99.73     Mainly Clear
17:00 19.1 9.7 54   2 7 15.0 99.76      
18:00 19.4 9.6 53   3 13 15.0 99.78      
19:00 16.7 8.9 60   4 6 15.0 99.82      
20:00 12.5 10.0 85   4 4 15.0 99.88      
21:00 10.6 8.8 89   7 4 15.0 99.91      
22:00 10.1 9.1 93     0 15.0 99.92      
23:00 9.7 8.8 94   10 7 15.0 99.94      

Notes on Data Quality.

Legend

  • E = Estimated
  • M = Missing
  • NA = Not Available*
  • [empty] = Indicates an unobserved value
Date modified: